CCA4125 ZBAA-ZULS

Flight info

Callsign CCA4125
Flight time N/A
Altitude 34100
Route BOTPU6J BOTPU W47 LOVRA W276 ANRUG W279 ONEBA G212 JTG W236 CTU B213 LXA
Aircraft A319/M-SDE3FGHIRWY/LB1

Departure

Time 2026-05-04 09:46
Airport Beijing Capital International Airport (ZBAA)

Arrival

Time N/A
Airport Lhasa Gonggar International Airport (ZULS)
Time Latitude Longitude Altitude Speed Heading
2026-05-04 09:28 40.07631 116.60345 122 ft 0 kts 42°
2026-05-04 09:38 40.07625 116.60338 123 ft 2 kts 42°
2026-05-04 09:39 40.07613 116.60324 122 ft 2 kts 42°
2026-05-04 09:39 40.07601 116.60310 122 ft 2 kts 42°
2026-05-04 09:39 40.07589 116.60296 119 ft 2 kts 42°
2026-05-04 09:39 40.07577 116.60282 120 ft 2 kts 42°
2026-05-04 09:40 40.07565 116.60268 118 ft 2 kts 18°
2026-05-04 09:40 40.07549 116.60267 120 ft 2 kts 313°
2026-05-04 09:40 40.07543 116.60276 122 ft 0 kts 313°
2026-05-04 09:42 40.07946 116.59874 122 ft 17 kts 353°
2026-05-04 09:43 40.08063 116.59857 121 ft 17 kts 353°
2026-05-04 09:43 40.08181 116.59840 123 ft 17 kts 353°
2026-05-04 09:43 40.08300 116.59821 122 ft 17 kts 352°
2026-05-04 09:43 40.08420 116.59801 123 ft 17 kts 354°
2026-05-04 09:44 40.08541 116.59782 122 ft 18 kts 352°
2026-05-04 09:44 40.08664 116.59762 121 ft 18 kts 353°
2026-05-04 09:44 40.08786 116.59744 123 ft 18 kts 353°
2026-05-04 09:46 40.07342 116.59734 122 ft 147 kts 173°
2026-05-04 09:46 40.06220 116.59910 407 ft 162 kts 173°
2026-05-04 09:46 40.05101 116.60077 972 ft 163 kts 176°
2026-05-04 09:47 40.03957 116.60250 1483 ft 171 kts 176°
2026-05-04 09:47 40.02702 116.60443 1726 ft 193 kts 176°
2026-05-04 09:49 39.91047 116.62275 6136 ft 267 kts 176°
2026-05-04 09:49 39.89177 116.62565 6858 ft 272 kts 176°
2026-05-04 09:49 39.87271 116.62859 7519 ft 279 kts 176°
2026-05-04 09:51 39.74625 116.64767 10495 ft 351 kts 179°
2026-05-04 09:51 39.74142 116.64806 10515 ft 354 kts 182°
2026-05-04 09:51 39.72340 116.64656 10615 ft 365 kts 194°
2026-05-04 09:52 39.70667 116.64053 10714 ft 373 kts 206°
2026-05-04 09:52 39.69181 116.63062 10929 ft 376 kts 217°
2026-05-04 09:53 39.67219 116.60848 11443 ft 375 kts 233°
2026-05-04 09:53 39.65826 116.58010 12016 ft 373 kts 249°
2026-05-04 09:53 39.65127 116.54780 12571 ft 373 kts 265°
2026-05-04 09:53 39.64903 116.51419 13157 ft 376 kts 268°
2026-05-04 09:54 39.64695 116.48017 13721 ft 380 kts 268°
2026-05-04 09:54 39.64483 116.44577 14232 ft 385 kts 268°
2026-05-04 09:54 39.64264 116.41105 14760 ft 388 kts 268°
2026-05-04 09:54 39.64036 116.37603 15297 ft 391 kts 267°
2026-05-04 09:55 39.63801 116.34068 15831 ft 394 kts 267°
2026-05-04 09:55 39.63563 116.30512 16364 ft 397 kts 267°
2026-05-04 09:55 39.63324 116.26931 16872 ft 401 kts 267°
2026-05-04 09:55 39.63085 116.23318 17382 ft 403 kts 267°
2026-05-04 09:56 39.62847 116.19685 17900 ft 405 kts 267°
2026-05-04 09:56 39.62605 116.16033 18367 ft 408 kts 267°
2026-05-04 09:56 39.62358 116.12361 18775 ft 410 kts 266°
2026-05-04 09:56 39.62105 116.08652 19144 ft 414 kts 266°
2026-05-04 09:57 39.61849 116.04928 19562 ft 416 kts 266°
2026-05-04 09:57 39.61596 116.01229 19976 ft 418 kts 267°
2026-05-04 09:57 39.61338 115.97463 20353 ft 421 kts 266°
2026-05-04 09:57 39.61079 115.93673 20705 ft 424 kts 266°
2026-05-04 09:58 39.60818 115.89847 21032 ft 427 kts 267°
2026-05-04 09:58 39.60791 115.86001 21393 ft 427 kts 276°
2026-05-04 09:58 39.61261 115.82199 21781 ft 426 kts 286°
2026-05-04 10:00 39.73636 115.61243 23940 ft 441 kts 336°
2026-05-04 10:00 39.76485 115.59681 24155 ft 444 kts 337°
2026-05-04 10:02 39.95601 115.46769 26187 ft 450 kts 310°
2026-05-04 10:04 39.99999 115.19291 28735 ft 449 kts 277°
2026-05-04 10:04 40.00199 115.15230 29118 ft 448 kts 277°
2026-05-04 10:04 40.00400 115.11177 29451 ft 447 kts 277°
2026-05-04 10:04 40.00603 115.07128 29818 ft 447 kts 277°
2026-05-04 10:05 40.00803 115.03079 30125 ft 447 kts 277°
2026-05-04 10:05 40.01001 114.99034 30431 ft 446 kts 277°
2026-05-04 10:05 40.01197 114.95008 30798 ft 444 kts 277°
2026-05-04 10:05 40.01392 114.90988 31144 ft 442 kts 277°
2026-05-04 10:06 40.01583 114.86992 31472 ft 441 kts 277°
2026-05-04 10:06 40.01771 114.83059 31798 ft 439 kts 277°
2026-05-04 10:06 40.01961 114.79084 32134 ft 438 kts 277°
2026-05-04 10:08 40.03052 114.55439 33853 ft 433 kts 277°
2026-05-04 10:08 40.03232 114.51516 33885 ft 434 kts 277°
2026-05-04 10:08 40.03584 114.43654 33881 ft 434 kts 277°
2026-05-04 10:09 40.03922 114.35792 33885 ft 434 kts 277°
2026-05-04 10:09 40.04258 114.27932 33886 ft 433 kts 277°
2026-05-04 10:10 40.04593 114.20086 33891 ft 433 kts 277°
2026-05-04 10:10 40.04937 114.12289 33893 ft 432 kts 278°
2026-05-04 10:11 40.05486 114.04438 33879 ft 431 kts 280°
2026-05-04 10:11 40.06121 113.96704 33866 ft 432 kts 280°
2026-05-04 10:12 40.06724 113.88902 33881 ft 432 kts 279°
2026-05-04 10:12 40.07285 113.81087 33890 ft 433 kts 279°
2026-05-04 10:13 40.07833 113.73261 33884 ft 433 kts 279°
2026-05-04 10:13 40.08382 113.65437 33889 ft 433 kts 279°
2026-05-04 10:14 40.08929 113.57610 33897 ft 433 kts 279°
2026-05-04 10:16 40.11084 113.26236 33903 ft 434 kts 279°
2026-05-04 10:16 40.11518 113.19708 33915 ft 434 kts 279°
2026-05-04 10:17 40.12034 113.11822 33916 ft 435 kts 279°
2026-05-04 10:19 40.14057 112.80300 33947 ft 435 kts 279°
2026-05-04 10:19 40.14545 112.72462 33942 ft 436 kts 279°
2026-05-04 10:20 40.15034 112.64563 33952 ft 436 kts 279°
2026-05-04 10:20 40.15521 112.56654 33953 ft 436 kts 279°
2026-05-04 10:21 40.15930 112.48725 33955 ft 440 kts 273°
2026-05-04 10:21 40.14908 112.40838 33945 ft 451 kts 255°
2026-05-04 10:22 40.11672 112.29266 33954 ft 452 kts 255°
2026-05-04 10:23 40.09518 112.21537 33958 ft 453 kts 255°
2026-05-04 10:25 40.00835 111.90613 33956 ft 454 kts 253°
2026-05-04 10:25 39.97780 111.83401 33968 ft 464 kts 235°
2026-05-04 10:26 39.93117 111.77524 33953 ft 470 kts 223°
2026-05-04 10:26 39.88086 111.72075 33954 ft 470 kts 223°
2026-05-04 10:27 39.83059 111.66635 33968 ft 469 kts 223°
2026-05-04 10:27 39.78032 111.61209 33977 ft 469 kts 223°
2026-05-04 10:28 39.72999 111.55800 33979 ft 469 kts 223°
2026-05-04 10:28 39.67962 111.50384 33965 ft 470 kts 223°
2026-05-04 10:29 39.62925 111.44967 33972 ft 470 kts 223°
2026-05-04 10:29 39.60625 111.42500 33973 ft 470 kts 223°
2026-05-04 10:30 39.58512 111.40237 33956 ft 470 kts 223°
2026-05-04 10:30 39.53468 111.34842 33957 ft 470 kts 223°
2026-05-04 10:31 39.48422 111.29455 33961 ft 470 kts 223°
2026-05-04 10:32 39.30721 111.10651 33937 ft 471 kts 223°
2026-05-04 10:33 39.25652 111.05294 33936 ft 471 kts 223°
2026-05-04 10:33 39.20791 110.99686 33934 ft 466 kts 233°
2026-05-04 10:34 39.18917 110.96317 33936 ft 460 kts 244°
2026-05-04 10:34 39.17554 110.92682 33936 ft 454 kts 253°
2026-05-04 10:34 39.16328 110.84820 33929 ft 444 kts 272°
2026-05-04 10:35 39.16631 110.76905 33920 ft 442 kts 277°
2026-05-04 10:35 39.17009 110.68979 33910 ft 443 kts 277°
2026-05-04 10:36 39.17374 110.61030 33910 ft 444 kts 277°
2026-05-04 10:36 39.17732 110.53087 33909 ft 444 kts 277°
2026-05-04 10:37 39.18090 110.45178 33898 ft 445 kts 277°
2026-05-04 10:37 39.18449 110.37207 33900 ft 445 kts 277°
2026-05-04 10:39 39.19671 110.09283 33892 ft 446 kts 277°
2026-05-04 10:40 39.20063 110.01294 33886 ft 447 kts 277°
2026-05-04 10:40 39.20456 109.93291 33892 ft 447 kts 277°
2026-05-04 10:41 39.20834 109.85340 33891 ft 447 kts 277°
2026-05-04 10:41 39.21206 109.77325 33876 ft 447 kts 276°
2026-05-04 10:42 39.21570 109.69316 33878 ft 447 kts 276°
2026-05-04 10:42 39.21795 109.61293 33879 ft 451 kts 267°
2026-05-04 10:42 39.21116 109.57338 33883 ft 456 kts 252°
2026-05-04 10:43 39.19639 109.53699 33881 ft 462 kts 236°
2026-05-04 10:44 38.98528 109.44078 33849 ft 475 kts 192°
2026-05-04 10:45 38.95322 109.43291 33856 ft 476 kts 192°
2026-05-04 10:45 38.88816 109.41691 33864 ft 476 kts 192°
2026-05-04 10:46 38.82306 109.40088 33865 ft 476 kts 192°
2026-05-04 10:46 38.75790 109.38476 33869 ft 476 kts 192°
2026-05-04 10:47 38.69282 109.36868 33873 ft 476 kts 192°
2026-05-04 10:47 38.62826 109.35278 33876 ft 476 kts 192°
2026-05-04 10:49 38.36795 109.29208 33874 ft 477 kts 185°
2026-05-04 10:50 38.30156 109.28804 33873 ft 477 kts 185°
2026-05-04 10:52 38.03649 109.27167 33882 ft 477 kts 185°
2026-05-04 10:52 37.97015 109.26770 33882 ft 477 kts 185°
2026-05-04 10:54 37.70488 109.25140 33887 ft 477 kts 185°
2026-05-04 10:56 37.44020 109.23546 33907 ft 476 kts 185°
2026-05-04 10:57 37.37396 109.23150 33923 ft 476 kts 185°
2026-05-04 10:57 37.30773 109.22747 33928 ft 476 kts 185°
2026-05-04 10:58 37.24156 109.22344 33934 ft 476 kts 185°
2026-05-04 10:58 37.17572 109.21949 33935 ft 476 kts 185°
2026-05-04 10:59 37.10946 109.21561 33936 ft 476 kts 185°
2026-05-04 10:59 37.04321 109.21162 33942 ft 476 kts 185°
2026-05-04 11:00 36.97715 109.20764 33958 ft 475 kts 185°
2026-05-04 11:02 36.71356 109.19292 33961 ft 473 kts 185°
2026-05-04 11:05 36.22060 109.16373 33974 ft 474 kts 186°
2026-05-04 11:06 36.15457 109.15956 33975 ft 475 kts 186°
2026-05-04 11:06 36.08856 109.15539 33972 ft 475 kts 186°
2026-05-04 11:10 35.65096 109.05292 34003 ft 469 kts 204°
2026-05-04 11:12 35.40540 108.94432 34020 ft 470 kts 204°
2026-05-04 11:12 35.34380 108.91708 34024 ft 469 kts 204°
2026-05-04 11:13 35.28235 108.89003 34023 ft 470 kts 204°
2026-05-04 11:13 35.22077 108.86308 34015 ft 470 kts 203°
2026-05-04 11:14 35.21081 108.85872 34016 ft 470 kts 203°
2026-05-04 11:16 34.91372 108.72887 33999 ft 469 kts 204°
2026-05-04 11:16 34.85217 108.70209 34002 ft 469 kts 204°
2026-05-04 11:17 34.79072 108.67535 33993 ft 469 kts 204°
2026-05-04 11:19 34.54551 108.56923 33962 ft 468 kts 203°
2026-05-04 11:19 34.48409 108.54275 33957 ft 468 kts 203°
2026-05-04 11:20 34.42263 108.51635 33962 ft 468 kts 203°
2026-05-04 11:20 34.36117 108.48998 33958 ft 469 kts 203°
2026-05-04 11:22 34.11516 108.38464 33984 ft 469 kts 203°
2026-05-04 11:23 34.05406 108.35852 33973 ft 469 kts 203°
2026-05-04 11:25 33.83836 108.26697 34053 ft 469 kts 203°
2026-05-04 11:25 33.77683 108.24092 34057 ft 469 kts 203°
2026-05-04 11:27 33.50017 108.12418 34082 ft 469 kts 203°
2026-05-04 11:28 33.43865 108.09789 34072 ft 468 kts 207°
2026-05-04 11:28 33.38376 108.05836 34054 ft 457 kts 224°
2026-05-04 11:29 33.34095 108.01594 34055 ft 457 kts 224°
2026-05-04 11:29 33.33493 108.01001 34050 ft 457 kts 224°
2026-05-04 11:33 32.99211 107.67309 34796 ft 455 kts 225°
2026-05-04 11:33 32.96765 107.64918 35097 ft 455 kts 225°
2026-05-04 11:33 32.94322 107.62529 35380 ft 454 kts 225°
2026-05-04 11:34 32.91882 107.60138 35660 ft 453 kts 225°
2026-05-04 11:34 32.89449 107.57755 35945 ft 453 kts 225°
2026-05-04 11:34 32.87009 107.55371 36060 ft 453 kts 225°
2026-05-04 11:34 32.84575 107.52998 36091 ft 452 kts 225°
2026-05-04 11:35 32.80060 107.47891 36091 ft 441 kts 238°
2026-05-04 11:35 32.76529 107.42027 36106 ft 439 kts 240°
2026-05-04 11:36 32.72976 107.36110 36104 ft 440 kts 240°
2026-05-04 11:36 32.69409 107.30197 36095 ft 439 kts 240°
2026-05-04 11:37 32.65851 107.24300 36106 ft 440 kts 240°
2026-05-04 11:37 32.62276 107.18388 36114 ft 442 kts 240°
2026-05-04 11:38 32.58659 107.12539 36118 ft 442 kts 239°
2026-05-04 11:38 32.54997 107.06681 36121 ft 441 kts 239°
2026-05-04 11:39 32.51346 107.00823 36092 ft 440 kts 240°
2026-05-04 11:41 32.38634 106.80428 36134 ft 440 kts 240°
2026-05-04 11:41 32.34991 106.74610 36138 ft 439 kts 240°
2026-05-04 11:42 32.31365 106.68828 36125 ft 439 kts 239°
2026-05-04 11:42 32.27737 106.63007 36112 ft 438 kts 240°
2026-05-04 11:43 32.24108 106.57211 36124 ft 439 kts 240°
2026-05-04 11:43 32.20463 106.51430 36123 ft 438 kts 240°
2026-05-04 11:44 32.16822 106.45656 36116 ft 438 kts 240°
2026-05-04 11:44 32.13208 106.39920 36118 ft 438 kts 240°
2026-05-04 11:45 32.09561 106.34148 36091 ft 438 kts 240°
2026-05-04 11:45 32.05908 106.28382 36089 ft 438 kts 240°
2026-05-04 11:46 32.02253 106.22630 36103 ft 438 kts 240°
2026-05-04 11:46 31.98615 106.16892 36102 ft 437 kts 240°
2026-05-04 11:47 31.94992 106.11188 36106 ft 436 kts 240°
2026-05-04 11:47 31.91357 106.05475 36094 ft 435 kts 240°
2026-05-04 11:48 31.87725 105.99773 36097 ft 435 kts 240°
2026-05-04 11:48 31.84094 105.94079 36069 ft 435 kts 241°
2026-05-04 11:49 31.80457 105.88391 36082 ft 434 kts 241°
2026-05-04 11:49 31.76853 105.82757 36087 ft 434 kts 241°
2026-05-04 11:50 31.73222 105.77086 36089 ft 433 kts 240°
2026-05-04 11:50 31.69589 105.71429 36094 ft 433 kts 240°
2026-05-04 11:51 31.65950 105.65775 36094 ft 434 kts 241°
2026-05-04 11:51 31.62311 105.60117 36077 ft 433 kts 241°
2026-05-04 11:52 31.58703 105.54517 36088 ft 433 kts 241°
2026-05-04 11:52 31.55064 105.48883 36095 ft 433 kts 241°
2026-05-04 11:53 31.51432 105.43265 36097 ft 432 kts 241°
2026-05-04 11:53 31.47799 105.37658 36094 ft 432 kts 240°
2026-05-04 11:55 31.33821 105.15008 36075 ft 426 kts 244°
2026-05-04 11:56 31.30445 105.09298 36076 ft 426 kts 243°
2026-05-04 11:56 31.27052 105.03656 36079 ft 427 kts 243°
2026-05-04 11:57 31.23629 104.97977 36081 ft 426 kts 243°
2026-05-04 11:57 31.20795 104.93258 36079 ft 426 kts 243°
2026-05-04 11:58 31.16819 104.86633 36046 ft 426 kts 244°
2026-05-04 11:58 31.13981 104.81920 36059 ft 426 kts 244°
2026-05-04 11:59 31.10566 104.76260 36073 ft 426 kts 244°
2026-05-04 11:59 31.07146 104.70603 36078 ft 426 kts 244°
2026-05-04 12:00 31.03724 104.64957 36079 ft 426 kts 243°
2026-05-04 12:00 31.00204 104.59380 36086 ft 428 kts 242°
2026-05-04 12:01 30.96638 104.53832 36060 ft 428 kts 242°
2026-05-04 12:02 30.85162 104.35917 36091 ft 427 kts 242°
2026-05-04 12:03 30.81517 104.30440 36093 ft 428 kts 241°
2026-05-04 12:03 30.77876 104.25021 36094 ft 427 kts 241°
2026-05-04 12:04 30.74226 104.19562 36074 ft 427 kts 242°
2026-05-04 12:04 30.70586 104.14100 36053 ft 427 kts 242°
2026-05-04 12:05 30.66943 104.08647 36070 ft 427 kts 242°
2026-05-04 12:05 30.63293 104.03204 36067 ft 427 kts 242°
2026-05-04 12:06 30.60086 103.97571 36068 ft 410 kts 255°
2026-05-04 12:06 30.59233 103.94467 36071 ft 399 kts 265°
2026-05-04 12:06 30.58942 103.91306 36072 ft 391 kts 275°
2026-05-04 12:07 30.59892 103.85208 36042 ft 383 kts 290°
2026-05-04 12:07 30.61546 103.79319 36048 ft 384 kts 290°
2026-05-04 12:08 30.63187 103.73409 36067 ft 385 kts 290°
2026-05-04 12:08 30.64818 103.67478 36071 ft 386 kts 289°
2026-05-04 12:09 30.66311 103.61486 36088 ft 387 kts 288°
2026-05-04 12:09 30.67721 103.55497 36092 ft 387 kts 288°
2026-05-04 12:10 30.69158 103.49472 36114 ft 387 kts 288°
2026-05-04 12:10 30.70609 103.43453 36122 ft 386 kts 288°
2026-05-04 12:11 30.72060 103.37429 36155 ft 387 kts 288°
2026-05-04 12:11 30.73513 103.31395 36203 ft 387 kts 287°
2026-05-04 12:12 30.74949 103.25411 36175 ft 384 kts 287°
2026-05-04 12:12 30.76383 103.19431 36201 ft 384 kts 288°
2026-05-04 12:14 30.80501 102.95076 36240 ft 392 kts 274°
2026-05-04 12:15 30.80389 102.88725 36247 ft 392 kts 274°
2026-05-04 12:15 30.80272 102.82423 36247 ft 392 kts 274°
2026-05-04 12:16 30.80157 102.76083 36219 ft 392 kts 274°
2026-05-04 12:16 30.80037 102.69745 36218 ft 391 kts 273°
2026-05-04 12:17 30.79915 102.63411 36236 ft 392 kts 273°
2026-05-04 12:17 30.79784 102.57067 36222 ft 392 kts 273°
2026-05-04 12:18 30.79660 102.50726 36235 ft 392 kts 274°
2026-05-04 12:18 30.79531 102.44440 36196 ft 390 kts 274°
2026-05-04 12:19 30.79397 102.38134 36180 ft 388 kts 273°
2026-05-04 12:19 30.79258 102.31830 36167 ft 391 kts 273°
2026-05-04 12:20 30.79115 102.25484 36176 ft 392 kts 273°
2026-05-04 12:20 30.78971 102.19142 36179 ft 392 kts 274°
2026-05-04 12:21 30.78827 102.12804 36150 ft 392 kts 273°
2026-05-04 12:21 30.78678 102.06514 36126 ft 387 kts 274°
2026-05-04 12:22 30.78522 102.00202 36112 ft 392 kts 273°
2026-05-04 12:22 30.78357 101.93889 36124 ft 391 kts 273°
2026-05-04 12:23 30.78486 101.87650 36103 ft 384 kts 279°
2026-05-04 12:23 30.79020 101.81445 36119 ft 388 kts 279°
2026-05-04 12:24 30.79540 101.75197 36113 ft 387 kts 280°
2026-05-04 12:24 30.80051 101.68923 36136 ft 388 kts 279°
2026-05-04 12:25 30.80473 101.63512 36119 ft 387 kts 281°
2026-05-04 12:25 30.81209 101.57396 35408 ft 378 kts 296°
2026-05-04 12:26 30.82811 101.55083 35865 ft 358 kts 310°
2026-05-04 12:26 30.84254 101.52748 36025 ft 358 kts 291°
2026-05-04 12:26 30.84707 101.49890 36125 ft 368 kts 270°
2026-05-04 12:26 30.84440 101.47874 36135 ft 378 kts 263°
2026-05-04 12:27 30.83406 101.42462 36129 ft 389 kts 264°
2026-05-04 12:27 30.83126 101.40987 36111 ft 390 kts 265°
2026-05-04 12:28 30.82995 101.34768 36128 ft 390 kts 275°
2026-05-04 12:28 30.83187 101.28472 36183 ft 388 kts 278°
2026-05-04 12:29 30.83728 101.22224 36124 ft 388 kts 279°
2026-05-04 12:29 30.84308 101.15976 36125 ft 389 kts 279°
2026-05-04 12:30 30.84744 101.10765 36124 ft 389 kts 278°
2026-05-04 12:30 30.85309 101.03425 36127 ft 390 kts 278°
2026-05-04 12:31 30.85703 100.98197 36128 ft 389 kts 278°
2026-05-04 12:31 30.86180 100.91912 36131 ft 390 kts 278°
2026-05-04 12:32 30.86899 100.82475 36133 ft 391 kts 278°
2026-05-04 12:33 30.87374 100.76169 36125 ft 391 kts 278°
2026-05-04 12:33 30.87844 100.69907 36124 ft 390 kts 278°
2026-05-04 12:34 30.88316 100.63615 36136 ft 390 kts 278°
2026-05-04 12:34 30.88783 100.57323 36126 ft 391 kts 278°
2026-05-04 12:35 30.89245 100.51026 36113 ft 389 kts 278°
2026-05-04 12:35 30.89709 100.44735 36116 ft 392 kts 278°
2026-05-04 12:36 30.90170 100.38439 36120 ft 394 kts 278°
2026-05-04 12:36 30.90631 100.32083 36125 ft 394 kts 278°
2026-05-04 12:37 30.91077 100.25731 36138 ft 395 kts 277°
2026-05-04 12:37 30.91525 100.19375 36104 ft 392 kts 277°
2026-05-04 12:38 30.91973 100.13014 36122 ft 395 kts 277°
2026-05-04 12:38 30.92426 100.06638 36133 ft 395 kts 278°
2026-05-04 12:39 30.92867 100.00307 36124 ft 392 kts 278°
2026-05-04 12:39 30.93344 99.93940 36139 ft 395 kts 278°
2026-05-04 12:40 30.93868 99.87596 36142 ft 396 kts 278°
2026-05-04 12:40 30.94382 99.81210 36136 ft 396 kts 278°
2026-05-04 12:41 30.94880 99.74804 36131 ft 396 kts 278°
2026-05-04 12:41 30.95377 99.68429 36135 ft 398 kts 278°
2026-05-04 12:42 30.95878 99.62010 36142 ft 398 kts 277°
2026-05-04 12:42 30.96379 99.55580 36144 ft 398 kts 278°
2026-05-04 12:43 30.96872 99.49142 36139 ft 399 kts 277°
2026-05-04 12:43 30.97352 99.42698 36133 ft 399 kts 277°
2026-05-04 12:44 30.97836 99.36289 36118 ft 399 kts 277°
2026-05-04 12:44 30.98322 99.29837 36118 ft 400 kts 277°
2026-05-04 12:45 30.98809 99.23374 36107 ft 400 kts 277°
2026-05-04 12:45 30.99284 99.16915 36111 ft 400 kts 277°
2026-05-04 12:46 30.99752 99.10450 36113 ft 400 kts 277°
2026-05-04 12:46 31.00222 99.04017 36087 ft 401 kts 277°
2026-05-04 12:47 31.00704 98.97542 36073 ft 401 kts 277°
2026-05-04 12:47 31.01178 98.91053 36071 ft 403 kts 277°
2026-05-04 12:48 31.01631 98.84544 36079 ft 403 kts 277°
2026-05-04 12:48 31.02091 98.78031 36078 ft 403 kts 277°
2026-05-04 12:49 31.02543 98.71549 36054 ft 401 kts 277°
2026-05-04 12:49 31.02993 98.65071 36066 ft 404 kts 276°
2026-05-04 12:50 31.03513 98.58549 36073 ft 403 kts 277°
2026-05-04 12:50 31.04082 98.52071 36079 ft 403 kts 277°
2026-05-04 12:51 31.04636 98.45571 36069 ft 403 kts 277°
2026-05-04 12:51 31.05173 98.39041 36063 ft 402 kts 277°
2026-05-04 12:52 31.05706 98.32585 36058 ft 402 kts 277°
2026-05-04 12:52 31.06226 98.26105 36060 ft 402 kts 277°
2026-05-04 12:53 31.06740 98.19599 36057 ft 402 kts 277°
2026-05-04 12:53 31.07252 98.13113 36063 ft 402 kts 277°
2026-05-04 12:54 31.07777 98.06614 36066 ft 403 kts 277°
2026-05-04 12:54 31.08310 98.00095 36073 ft 402 kts 277°
2026-05-04 12:55 31.08831 97.93629 36062 ft 403 kts 276°
2026-05-04 12:55 31.09349 97.87114 36063 ft 403 kts 276°
2026-05-04 12:56 31.09868 97.80567 36065 ft 405 kts 276°
2026-05-04 12:56 31.10382 97.74030 36054 ft 404 kts 276°
2026-05-04 12:57 31.10888 97.67497 36064 ft 404 kts 276°
2026-05-04 12:57 31.11389 97.60963 36060 ft 405 kts 276°
2026-05-04 12:58 31.11896 97.54415 36033 ft 405 kts 276°
2026-05-04 12:58 31.12400 97.47923 36035 ft 404 kts 276°
2026-05-04 12:59 31.12899 97.41383 36037 ft 405 kts 276°
2026-05-04 12:59 31.13389 97.34818 36039 ft 406 kts 276°
2026-05-04 13:00 31.13883 97.28229 36026 ft 406 kts 276°
2026-05-04 13:00 31.14365 97.21699 36031 ft 406 kts 276°
2026-05-04 13:01 31.14122 97.15126 36034 ft 410 kts 259°
2026-05-04 13:01 31.12731 97.08675 36023 ft 410 kts 259°
2026-05-04 13:02 31.11350 97.02223 36037 ft 410 kts 259°
2026-05-04 13:02 31.09971 96.95764 36050 ft 410 kts 259°
2026-05-04 13:03 31.08591 96.89344 36060 ft 411 kts 259°
2026-05-04 13:03 31.07204 96.82885 36069 ft 410 kts 259°
2026-05-04 13:04 31.05808 96.76438 36057 ft 410 kts 259°
2026-05-04 13:04 31.04408 96.69972 36061 ft 412 kts 259°
2026-05-04 13:05 31.03003 96.63506 36058 ft 411 kts 258°
2026-05-04 13:05 31.01588 96.57041 36097 ft 412 kts 258°
2026-05-04 13:06 31.00179 96.50597 36112 ft 412 kts 258°
2026-05-04 13:06 30.98762 96.44124 36100 ft 411 kts 258°
2026-05-04 13:07 30.97355 96.37641 36109 ft 411 kts 259°
2026-05-04 13:07 30.96000 96.31166 36113 ft 411 kts 259°
2026-05-04 13:08 30.94646 96.24705 36111 ft 411 kts 259°
2026-05-04 13:08 30.93268 96.18226 36127 ft 412 kts 259°
2026-05-04 13:09 30.91884 96.11759 36118 ft 411 kts 259°
2026-05-04 13:09 30.90511 96.05338 36098 ft 410 kts 259°
2026-05-04 13:10 30.89134 95.98886 36103 ft 411 kts 258°
2026-05-04 13:10 30.87755 95.92428 36094 ft 412 kts 258°
2026-05-04 13:11 30.86364 95.85962 36101 ft 412 kts 259°
2026-05-04 13:11 30.84961 95.79482 36110 ft 412 kts 258°
2026-05-04 13:12 30.83557 95.73007 36125 ft 413 kts 258°
2026-05-04 13:12 30.82193 95.66509 36132 ft 413 kts 259°
2026-05-04 13:13 30.81306 95.62150 36142 ft 414 kts 259°